Regional Weather Roundup
Issued by NWS

Home | Current Version | Previous Version | Text Only | Print | Product List | Glossary On
Versions: 1 2 3 4 5 6 7 8 9 10 11 12 13 14 15 16 17 18 19 20 21 22 23 24 25 26 27 28 29 30 31 32 33 34 35 36 37 38 39 40 41 42 43 44 45 46 47 48 49 50
000
ASUS43 KDMX 010107
RWRIA

WEATHER ROUNDUP FOR IOWA
NATIONAL WEATHER SERVICE DES MOINES IA
800 PM CDT MON AUG 31 2015

NOTE: "FAIR" INDICATES FEW OR NO CLOUDS BELOW 12,000 FEET WITH NO
SIGNIFICANT WEATHER AND/OR OBSTRUCTIONS TO VISIBILITY.

* - THESE STATIONS ARE NOT NWS STATIONS...THUS NOT UNDER NWS
QUALITY CONTROL.  THEY ALSO DO NOT REPORT WEATHER SUCH
AS PRECIPITATION OR FOG.

IAZ001>003-012>014-020>022-031>034-043>046-010200-
   NORTHWEST IOWA

CITY           SKY/WX    TMP DP  RH WIND       PRES   REMARKS
CARROLL *      CLEAR     72  70  94 S3        29.93S
CHEROKEE *     CLEAR     73  72  94 S3        29.91S
DENISON *      CLEAR     73  70  88 MISG      29.90F
LE MARS *      CLEAR     77  70  78 SE7       29.90F
ORANGE CITY *  CLEAR     75  72  88 S6        29.91S
SHELDON *      CLEAR     73  70  88 S5        29.90S
SIOUX CITY     CLEAR     77  68  73 SE5       29.89S
SPENCER        CLEAR     72  66  81 S7        29.92S
STORM LAKE *   CLEAR     73  68  83 S8        29.93S
$$

IAZ055>058-069>071-079>083-090>094-010200-
   SOUTHWEST IOWA

CITY           SKY/WX    TMP DP  RH WIND       PRES   REMARKS
ATLANTIC *     CLEAR     75  70  83 CALM      29.93S
AUDUBON *      CLEAR     72  68  88 CALM      29.95S
CLARINDA *     CLEAR     75  72  88 CALM      29.94R
COUNCIL BLFS * CLEAR     77  70  78 SE5       29.91S
CRESTON *      CLEAR     77  70  78 S7        29.96R
LAMONI         CLEAR     79  69  71 S7        29.96R HX  81
RED OAK *      CLEAR     77  72  83 CALM      29.92S
SHENANDOAH *   CLEAR     77  72  83 SE5       29.92R
$$

IAZ047>049-059>061-072>074-084-010200-
   CENTRAL IOWA

CITY           SKY/WX    TMP DP  RH WIND       PRES   REMARKS
AMES           PTCLDY    76  71  85 S5        29.93S
ANKENY *       CLEAR     79  73  83 CALM      29.92S HX  82
CHARITON *     PTCLDY    79  72  78 S5        29.95S HX  82
DES MOINES     PTCLDY    81  71  71 S6        29.92S HX  85
GRINNELL*      CLEAR     77  70  78 S6        29.96R
KNOXVILLE *    CLEAR     79  72  78 S5        29.93S HX  82
MARSHALLTOWN   CLEAR     78  71  79 SE5       29.93S HX  80
PELLA *        CLEAR     79  73  83 S5        29.95S HX  82
PERRY *          N/A     77  72  83 SW5       29.93S
$$

IAZ004>006-015-016-023>025-035-036-010200-
   NORTH CENTRAL IOWA

CITY           SKY/WX    TMP DP  RH WIND       PRES   REMARKS
ALGONA *       CLEAR     73  70  88 S7        29.93S
CLARION *      FOG       73  70  88 S6        29.94R VSB 1/4
ESTHERVILLE    CLEAR     72  67  84 S7        29.92S
FORT DODGE *   CLEAR     75  66  73 S5        29.94S
MASON CITY     PTCLDY    74  72  93 S6        29.95S
FOREST CITY *  CLEAR     72  70  94 SE3       29.94R
IOWA FALLS *     N/A     77  72  83 S5        29.96R
$$

IAZ007>011-017>019-026>030-037>042-050>054-066-010200-
   NORTHEAST IOWA

CITY           SKY/WX    TMP DP  RH WIND       PRES   REMARKS
CEDAR RAPIDS   CLEAR     77  74  90 SE6       29.95F
CHARLES CITY * MOCLDY    77  75  94 S6        29.96R
CLINTON *      CLEAR     77  72  83 SE7       30.01R
DECORAH *      CLEAR     75  72  88 SE5       29.96R
DUBUQUE        CLEAR     75  72  90 SE6       29.99F
MONTICELLO *   CLEAR     77  73  88 SE6       29.97S
OELWEIN *      PTCLDY    75  73  94 SE6       29.97R
WATERLOO       CLEAR     79  72  79 SE6       29.93S HX  82
$$

IAZ064-065-067-068-078-010200-
   EAST CENTRAL IOWA

CITY           SKY/WX    TMP DP  RH WIND       PRES   REMARKS
DAVENPORT      CLEAR     76  72  87 SE5       29.98S
IOWA CITY      PTCLDY    79  73  82 SE6       29.96S HX  82
MT. PLEASANT * PTCLDY    81  70  69 SE5       29.96S HX  84
MUSCATINE *    CLEAR     82  72  69 CALM      29.96S HX  87
QUAD CITIES    CLEAR     77  72  84 SE3       29.97S
$$

IAZ062-063-075>077-085>089-095>099-010200-
   SOUTHEAST IOWA

CITY           SKY/WX    TMP DP  RH WIND       PRES   REMARKS
BURLINGTON     CLEAR     81  73  76 SE6       29.97S HX  86
FAIRFIELD *    PTCLDY    79  72  78 SE6       29.95S HX  82
FORT MADISON * PTCLDY    79  73  83 SE3       29.98S HX  82
KEOKUK *       CLEAR     82  72  69 SE6       29.96S HX  87
OSKALOOSA *      N/A     77  72  83 CALM      29.96R
CENTERVILLE *  CLEAR     75  72  88 SE6       29.98R
OTTUMWA        CLEAR     76  72  87 S5        29.93S
WASHINGTON *     N/A    N/A N/A N/A MISG        N/A
$$

ABBREVIATIONS USED IN REMARKS
   TC - TEMPERATURES IN CELSIUS
  WCI - WIND CHILL INDEX
   HX - HEAT INDEX
  VSB - VISIBILITY
$$




USA.gov is the U.S. government's official web portal to all federal, state and local government web resources and services.